Location: ????? ????
(37.9717°N, 23.4051°E)
Time: 08:27:48
(UTC+00:00)

CZ-4B R/B - Visible Passes

Search period start: 24 July 2024 00:00
Search period end: 03 August 2024 00:00
Orbit: 809 x 880 km, 99.0° (Epoch: 23 July)

Date Brightness Start Highest point End Pass type
(mag) Time Alt. Az. Time Alt. Az. Time Alt. Az.
24 Jul 4.4 18:55:49 10° SSW 19:01:02 41° W 19:06:20 10° NNW visible
25 Jul 3.9 18:41:55 10° S 18:47:21 55° W 18:52:54 10° NNW visible
26 Jul 3.5 18:28:09 10° S 18:33:42 74° WSW 18:39:22 10° NNW visible
27 Jul 3.3 18:14:31 10° SSE 18:20:05 84° ENE 18:25:47 10° NNW visible
27 Jul 5.9 19:59:36 10° WSW 20:01:16 11° W 20:02:56 10° WNW visible
28 Jul 3.4 18:01:00 10° SSE 18:06:30 64° ENE 18:12:07 10° N visible
28 Jul 5.7 19:44:10 10° SW 19:47:28 16° W 19:50:47 10° NW visible
29 Jul 5.4 19:29:31 10° SW 19:33:41 21° W 19:37:55 10° NW visible
30 Jul 5.0 19:15:12 10° SSW 19:19:57 28° W 19:24:47 10° NW visible
31 Jul 4.6 19:01:05 10° SSW 19:06:15 38° W 19:11:29 10° NNW visible
01 Aug 4.1 18:47:08 10° S 18:52:33 50° W 18:58:04 10° NNW visible
02 Aug 3.6 18:33:20 10° S 18:38:55 67° WSW 18:44:33 10° NNW visible
